Regional Weather Roundup
Issued by NWS

Home | Current Version | Previous Version | Text Only | Print | Product List | Glossary On
Versions: 1 2 3 4 5 6 7 8 9 10 11 12 13 14 15 16 17 18 19 20 21 22 23 24 25 26 27 28 29 30 31 32 33 34 35 36 37 38 39 40 41 42 43 44 45 46 47 48 49 50
000
ASUS44 KJAN 172110
RWRMS

MISSISSIPPI HOURLY WEATHER ROUNDUP
NATIONAL WEATHER SERVICE JACKSON MS
300 PM CST TUE JAN 17 2017

NOTE: "FAIR: INDICATES FEW OR NO CLOUDS BELOW 12,000 FEET WITH NO
SIGNIFICANT WEATHER AND/OR OBSTRUCTIONS TO VISIBILITY.

MSZ001>002-007>008-010>013-018>021-025>028-034>036-172200-
NORTHWEST MISSISSIPPI

CITY           SKY/WX    TMP DP  RH WIND       PRES   REMARKS
BATESVILLE     RAIN      57  55  92 W6        30.13S
CLARKSDALE     PTSUNNY   57  54  88 W5        30.12S
CLEVELAND      RAIN      55  55 100 SW6       30.13R
GREENWOOD      RAIN      57  55  93 CALM      30.14S FOG
GREENVILLE     RAIN      54  51  90 CALM      30.14R FOG
OLIVE BRANCH   CLOUDY   N/A N/A N/A W12       30.11R
OXFORD         CLOUDY    55  54  94 W7G17     30.14R
TUNICA         CLOUDY    54  46  76 W6        30.13S
WINONA         DRIZZLE   58  57  97 CALM      30.14R
$$

MSZ003>006-009-014>017-022>024-029>033-037>039-172200-
NORTHEAST MISSISSIPPI

CITY           SKY/WX    TMP DP  RH WIND       PRES   REMARKS
COLUMBUS AFB   PTSUNNY   72  61  68 W8        30.10R
CORINTH        CLOUDY    61  55  82 W8        30.09R
STARKVILLE     FAIR      72  61  68 NW6       30.11R
TUPELO         LGT RAIN  59  57  93 S8        30.10R
$$

MSZ040-058-172200-
CENTRAL MISSISSIPPI

CITY           SKY/WX    TMP DP  RH WIND       PRES   REMARKS
JACKSON INTL   CLOUDY    78  57  48 SW15      30.09R
JACKSON HAWKNS CLOUDY    72  60  66 NW8       30.11R
MADISON        FAIR      72  61  68 NW5       30.11R
MERIDIAN KEY   MOSUNNY   79  62  56 SW13      30.10S
MERIDIAN NAS   PTSUNNY   79  59  50 SW7       30.11R
RAYMOND        DRIZZLE   73  63  68 NW7       30.10R
VICKSBURG VKS  PTCLDY    66  59  77 NW7       30.11S
$$

MSZ059>079-172200-
SOUTH MISSISSIPPI

CITY           SKY/WX    TMP DP  RH WIND       PRES   REMARKS
BROOKHAVEN     FAIR      77  61  57 SW9       30.12R
HATTIESBURG    MOSUNNY   79  61  53 S12       30.11S
LAUREL         FAIR      78  60  52 SW10      30.10F
MCCOMB         MOSUNNY   78  58  49 SW12G20   30.10S
NATCHEZ        PTSUNNY   73  61  64 N9        30.08F
PINE BELT      PTSUNNY   79  61  53 SW10      30.12F
$$

MSZ080>082-172200-
COASTAL MISSISSIPPI

CITY           SKY/WX    TMP DP  RH WIND       PRES   REMARKS
BAY ST LOUIS   MOSUNNY   77  61  57 S9G17     30.12F
BILOXI         MOSUNNY   72  72 100 S9        30.13F
PASCAGOULA     LGT RAIN  72  67  84 S7        30.14S
GULFPORT       SUNNY     72  68  87 S9        30.13S
$$

LAZ007>009-015>016-023>026-172200-
NORTHEAST LOUISIANA

CITY           SKY/WX    TMP DP  RH WIND       PRES   REMARKS
BASTROP        RAIN      54  53  97 CALM      30.15R
TALLULAH/VBURG PTSUNNY   62  56  80 NW6       30.13R
VIDALIA        CLOUDY    68  62  79 N7        30.12S
$$



USA.gov is the U.S. government's official web portal to all federal, state and local government web resources and services.